When you browse on this site, cookies collect data to enhance your experience and personalize the content and advertising you see.
Visit our Privacy Policy to learn more. By continuing to use the site, you agree to this use of cookies and data.
  • In Deutschland
  • Länderverzeichnis
  • Für 7 Tage
  • Wassertemperatur
  • Wetterkarte
  • Widgets
  • user-avatar
    Anmelden

    Stündliche Wetter Canillo

    Heute, 10 Dezember, Dienstag

    Zeit Temperatur Niederschläge Wind Luftdruck Luftfeuchtigkeit
    00:00 -5°C° 0 mm 4 m/S 620 mmHg 93%
    01:00 -5°C° 0.4 mm 4 m/S 620 mmHg 92%
    02:00 -5°C° 0.4 mm 4 m/S 619 mmHg 91%
    03:00 -5°C° 0.4 mm 4 m/S 619 mmHg 91%
    04:00 -5°C° 0.1 mm 4 m/S 619 mmHg 90%
    05:00 -7°C° 0.1 mm 4 m/S 619 mmHg 88%
    06:00 -6°C° 0 mm 3 m/S 619 mmHg 87%
    07:00 -5°C° 0 mm 3 m/S 620 mmHg 77%
    08:00 -4°C° 0 mm 3 m/S 620 mmHg 67%
    09:00 -2°C° 0 mm 3 m/S 620 mmHg 56%
    10:00 0°C° 0 mm 3 m/S 621 mmHg 57%
    11:00 +2°C° 0 mm 3 m/S 621 mmHg 57%
    12:00 +5°C° 0 mm 2 m/S 622 mmHg 57%
    13:00 +4°C° 0 mm 2 m/S 621 mmHg 59%
    14:00 +4°C° 0 mm 2 m/S 620 mmHg 61%
    15:00 +4°C° 0 mm 1 m/S 620 mmHg 62%
    16:00 +2°C° 0 mm 2 m/S 619 mmHg 58%
    17:00 +1°C° 0 mm 2 m/S 618 mmHg 54%
    18:00 -2°C° 0 mm 2 m/S 618 mmHg 50%
    19:00 -2°C° 0 mm 2 m/S 618 mmHg 46%
    20:00 -2°C° 0 mm 2 m/S 618 mmHg 43%
    21:00 -2°C° 0 mm 2 m/S 618 mmHg 40%
    22:00 -2°C° 0 mm 2 m/S 618 mmHg 41%
    23:00 -1°C° 0 mm 2 m/S 618 mmHg 41%

    Morgen, 11 Dezember, Mittwoch

    Zeit Temperatur Niederschläge Wind Luftdruck Luftfeuchtigkeit
    00:00 -1°C° 0 mm 2 m/S 618 mmHg 42%
    01:00 -1°C° 0 mm 2 m/S 617 mmHg 44%
    02:00 -1°C° 0 mm 2 m/S 617 mmHg 45%
    03:00 -1°C° 0 mm 2 m/S 616 mmHg 47%
    04:00 -1°C° 0 mm 2 m/S 616 mmHg 48%
    05:00 -2°C° 0 mm 2 m/S 616 mmHg 49%
    06:00 -2°C° 0 mm 2 m/S 615 mmHg 50%
    07:00 +1°C° 0 mm 1 m/S 616 mmHg 54%
    08:00 +2°C° 0 mm 1 m/S 616 mmHg 58%
    09:00 +3°C° 0 mm 1 m/S 617 mmHg 63%
    10:00 +3°C° 0.1 mm 1 m/S 617 mmHg 66%
    11:00 +3°C° 0.1 mm 1 m/S 617 mmHg 70%
    12:00 +2°C° 0.1 mm 2 m/S 617 mmHg 73%
    13:00 +2°C° 0.7 mm 2 m/S 616 mmHg 78%
    14:00 +1°C° 0.7 mm 2 m/S 616 mmHg 82%
    15:00 -1°C° 0.7 mm 3 m/S 615 mmHg 86%
    16:00 -2°C° 0.1 mm 2 m/S 615 mmHg 88%
    17:00 -4°C° 0.1 mm 2 m/S 614 mmHg 90%
    18:00 -5°C° 0.1 mm 2 m/S 614 mmHg 91%
    19:00 -5°C° 0.1 mm 2 m/S 614 mmHg 89%
    20:00 -5°C° 0.1 mm 2 m/S 614 mmHg 88%
    21:00 -6°C° 0.1 mm 2 m/S 613 mmHg 86%
    22:00 -5°C° 0.5 mm 2 m/S 614 mmHg 87%
    23:00 -5°C° 0.5 mm 2 m/S 614 mmHg 89%

    übermorgen, 12 Dezember, Donnerstag

    Zeit Temperatur Niederschläge Wind Luftdruck Luftfeuchtigkeit
    00:00 -4°C° 0.5 mm 2 m/S 614 mmHg 91%
    01:00 -4°C° 0.3 mm 2 m/S 613 mmHg 91%
    02:00 -5°C° 0.3 mm 2 m/S 613 mmHg 92%
    03:00 -5°C° 0.3 mm 2 m/S 613 mmHg 92%
    04:00 -3°C° 0.5 mm 1 m/S 613 mmHg 92%
    05:00 -3°C° 0.5 mm 1 m/S 613 mmHg 91%
    06:00 -3°C° 0.5 mm 1 m/S 612 mmHg 90%
    07:00 -2°C° 0.2 mm 1 m/S 613 mmHg 88%
    08:00 -1°C° 0.2 mm 1 m/S 613 mmHg 86%
    09:00 0°C° 0.2 mm 1 m/S 613 mmHg 84%
    10:00 0°C° 0.1 mm 1 m/S 613 mmHg 81%
    11:00 +1°C° 0.1 mm 1 m/S 613 mmHg 78%
    12:00 +2°C° 0.1 mm 1 m/S 613 mmHg 75%
    13:00 +2°C° 0 mm 1 m/S 612 mmHg 78%
    14:00 +1°C° 0 mm 1 m/S 612 mmHg 81%
    15:00 +1°C° 0 mm 1 m/S 611 mmHg 84%
    16:00 -2°C° 0 mm 2 m/S 610 mmHg 87%
    17:00 -3°C° 0 mm 2 m/S 609 mmHg 90%
    18:00 -4°C° 0 mm 3 m/S 608 mmHg 93%
    19:00 -4°C° 1.1 mm 3 m/S 607 mmHg 94%
    20:00 -4°C° 1.1 mm 3 m/S 607 mmHg 94%
    21:00 -3°C° 1.1 mm 2 m/S 606 mmHg 95%
    22:00 -3°C° 1.6 mm 2 m/S 606 mmHg 95%
    23:00 -2°C° 1.6 mm 2 m/S 606 mmHg 96%

    13 Dezember, Freitag

    Zeit Temperatur Niederschläge Wind Luftdruck Luftfeuchtigkeit
    00:00 -2°C° 1.6 mm 2 m/S 606 mmHg 96%
    01:00 -2°C° 1.7 mm 2 m/S 605 mmHg 97%
    02:00 -1°C° 1.7 mm 2 m/S 605 mmHg 97%
    03:00 +1°C° 1.7 mm 1 m/S 605 mmHg 97%
    04:00 -1°C° 2.2 mm 2 m/S 605 mmHg 98%
    05:00 -1°C° 2.2 mm 2 m/S 605 mmHg 98%
    06:00 -1°C° 2.2 mm 2 m/S 605 mmHg 98%
    07:00 -1°C° 2.8 mm 2 m/S 605 mmHg 98%
    08:00 -1°C° 2.8 mm 2 m/S 605 mmHg 98%
    09:00 +2°C° 2.8 mm 1 m/S 605 mmHg 98%
    10:00 +1°C° 3.1 mm 2 m/S 605 mmHg 98%
    11:00 +1°C° 3.1 mm 2 m/S 605 mmHg 98%
    12:00 0°C° 3.1 mm 3 m/S 605 mmHg 98%
    13:00 0°C° 2.2 mm 3 m/S 606 mmHg 98%
    14:00 0°C° 2.2 mm 3 m/S 606 mmHg 98%
    15:00 -1°C° 2.2 mm 4 m/S 606 mmHg 98%
    16:00 -1°C° 2.1 mm 4 m/S 607 mmHg 98%
    17:00 -2°C° 2.1 mm 4 m/S 608 mmHg 98%
    18:00 -2°C° 2.1 mm 4 m/S 609 mmHg 98%
    19:00 -1°C° 3 mm 3 m/S 609 mmHg 98%
    20:00 -1°C° 3 mm 3 m/S 610 mmHg 98%
    21:00 -1°C° 3 mm 2 m/S 610 mmHg 98%
    22:00 +1°C° 1.3 mm 2 m/S 611 mmHg 98%
    23:00 +1°C° 1.3 mm 2 m/S 611 mmHg 98%

    14 Dezember, Samstag

    Zeit Temperatur Niederschläge Wind Luftdruck Luftfeuchtigkeit
    00:00 0°C° 1.3 mm 3 m/S 611 mmHg 98%
    01:00 +1°C° 0.1 mm 2 m/S 612 mmHg 98%
    02:00 +1°C° 0.1 mm 2 m/S 612 mmHg 97%
    03:00 +1°C° 0.1 mm 2 m/S 612 mmHg 97%
    04:00 +1°C° 0 mm 2 m/S 612 mmHg 96%
    05:00 +1°C° 0 mm 2 m/S 612 mmHg 95%
    06:00 -1°C° 0 mm 2 m/S 612 mmHg 95%
    07:00 +1°C° 0 mm 2 m/S 613 mmHg 95%
    08:00 +1°C° 0 mm 2 m/S 614 mmHg 95%
    09:00 +2°C° 0 mm 2 m/S 614 mmHg 95%
    10:00 +3°C° 0 mm 1 m/S 615 mmHg 94%
    11:00 +4°C° 0 mm 1 m/S 615 mmHg 93%
    12:00 +5°C° 0 mm 1 m/S 615 mmHg 92%
    13:00 +4°C° 0 mm 1 m/S 615 mmHg 93%
    14:00 +4°C° 0 mm 1 m/S 615 mmHg 93%
    15:00 +3°C° 0 mm 0 m/S 614 mmHg 94%
    16:00 +3°C° 0 mm 1 m/S 614 mmHg 93%
    17:00 +2°C° 0 mm 1 m/S 614 mmHg 92%
    18:00 +1°C° 0 mm 1 m/S 614 mmHg 91%
    19:00 +1°C° 0 mm 1 m/S 614 mmHg 92%
    20:00 +1°C° 0 mm 1 m/S 614 mmHg 93%
    21:00 -1°C° 0 mm 2 m/S 614 mmHg 93%
    22:00 -1°C° 0 mm 2 m/S 614 mmHg 92%
    23:00 -1°C° 0 mm 2 m/S 614 mmHg 92%

    15 Dezember, Sonntag

    Zeit Temperatur Niederschläge Wind Luftdruck Luftfeuchtigkeit
    00:00 -1°C° 0 mm 2 m/S 614 mmHg 91%
    01:00 -2°C° 0 mm 2 m/S 613 mmHg 86%
    02:00 -2°C° 0 mm 2 m/S 613 mmHg 82%
    03:00 -2°C° 0 mm 2 m/S 612 mmHg 78%
    04:00 -2°C° 0 mm 2 m/S 612 mmHg 76%
    05:00 -1°C° 0 mm 1 m/S 612 mmHg 75%
    06:00 -1°C° 0 mm 1 m/S 612 mmHg 74%
    07:00 0°C° 0 mm 1 m/S 613 mmHg 74%
    08:00 +2°C° 0 mm 1 m/S 614 mmHg 74%
    09:00 +3°C° 0 mm 1 m/S 614 mmHg 74%
    10:00 +3°C° 0 mm 1 m/S 614 mmHg 78%
    11:00 +4°C° 0 mm 1 m/S 615 mmHg 82%
    12:00 +5°C° 0 mm 1 m/S 615 mmHg 85%
    13:00 +5°C° 0 mm 1 m/S 614 mmHg 87%
    14:00 +4°C° 0 mm 1 m/S 614 mmHg 88%
    15:00 +4°C° 0 mm 1 m/S 614 mmHg 90%
    16:00 +2°C° 0 mm 1 m/S 613 mmHg 86%
    17:00 +1°C° 0 mm 1 m/S 613 mmHg 82%
    18:00 -2°C° 0 mm 2 m/S 612 mmHg 78%
    19:00 -2°C° 0 mm 2 m/S 612 mmHg 78%
    20:00 -2°C° 0 mm 2 m/S 612 mmHg 77%
    21:00 -2°C° 0 mm 2 m/S 612 mmHg 76%
    22:00 -2°C° 0 mm 2 m/S 612 mmHg 77%
    23:00 -2°C° 0 mm 2 m/S 611 mmHg 77%
    Mehr zeigen